[[{"header":{"parameterUnit":"m.s-1","parameterCategory":1,"la1":30.2991,"la2":30.254,"lo1":-89.0895,"lo2":-89.0444,"dy":0.0017,"dx":0.0017,"nx":28,"ny":28,"refTime":"2024-08-24T09:00:00:Z","depth":0,"parameterNumber":2,"parameterNumberName":"U-component_of_WINDS"},"data":[0,0,0,0,0,0,0,0,0,0,0,0,0,0,0,0,0,0,0,0,0,0,0,0,0,0,0,0,0,0,0,0,0,0,0,0,0,0,0,0,0,0,0,0,0,0,0,0,0,0,0,0,0,0,0,0,0,0,-3.5339,-3.5339,0,-3.538,-3.5381,-3.5381,-3.5292,-3.5289,-3.5287,-3.5284,-3.5326,-3.5329,-3.5333,0,0,0,0,0,0,0,0,0,0,0,0,0,-3.5182,-3.5185,-3.5339,-3.5339,-3.534,-3.538,-3.5381,-3.5382,-3.5293,-3.5289,-3.5286,-3.5283,-3.5325,-3.5329,-3.5334,0,0,0,0,0,0,0,0,0,0,0,0,0,-3.5239,-3.5186,-3.5339,-3.5301,-3.5298,-3.538,-3.5381,-3.5382,-3.5294,-3.5289,-3.5285,-3.5281,-3.5323,-3.5329,-3.5334,-3.5456,0,0,-3.5352,-3.5354,0,0,0,0,0,0,0,0,-3.5236,-3.5245,-3.5306,-3.5303,-3.53,-3.5327,-3.5341,-3.5406,-3.5295,-3.5295,-3.5284,-3.5279,-3.533,-3.5334,-3.5352,-3.5458,-3.5459,-3.5352,-3.5356,-3.5358,-3.536,0,0,0,0,0,0,0,-3.5232,-3.5243,-3.5355,-3.5307,-3.5303,-3.5281,-3.5284,-3.5353,-3.5336,-3.5295,-3.5288,-3.5295,-3.5327,-3.5346,-3.5352,-3.546,-3.5352,-3.5357,-3.5361,-3.5363,-3.5667,-3.5671,0,0,0,0,0,0,-3.5233,-3.524,-3.5354,-3.5356,-3.5257,-3.5287,-3.5291,-3.5323,-3.5335,-3.5333,-3.5298,-3.529,-3.5339,-3.5345,-3.5353,-3.5495,-3.5358,-3.5363,-3.5367,-3.5662,-3.5668,-3.5673,0,0,0,0,0,0,-3.523,-3.5244,-3.5352,-3.5297,-3.5309,-3.5295,-3.5331,-3.5326,-3.5345,-3.5338,-3.5334,-3.5321,-3.5336,-3.5345,-3.5431,-3.5495,-3.5366,-3.5371,-3.5657,-3.5664,-3.567,-3.5781,0,0,0,0,0,0,-3.5226,-3.5244,-3.529,-3.5298,-3.5312,-3.543,-3.5335,-3.533,-3.5355,-3.5345,-3.5358,-3.5356,-3.5333,-3.5423,-3.5436,-3.5501,-3.5376,-3.5651,-3.566,-3.5668,-3.5771,-3.5791,-3.5807,0,0,0,0,0,-3.5221,-3.5319,-3.5293,-3.5307,-3.537,-3.5434,-3.5441,-3.5413,-3.5361,-3.5406,-3.5402,-3.5356,-3.5487,-3.5432,-3.5447,-3.5514,-3.5646,-3.5657,-3.5667,-3.5763,-3.5787,-3.5807,0,0,0,0,0,0,-3.5319,-3.532,-3.529,-3.5395,-3.5415,-3.5418,-3.5475,-3.5439,-3.5474,-3.5463,-3.5427,-3.543,-3.5523,-3.5527,-3.5467,-3.5632,-3.5557,-3.5571,-3.5625,-3.5648,-3.5665,-3.5662,-3.538,0,0,0,0,0,-3.5353,-3.5405,-3.5403,-3.5495,-3.5507,-3.549,-3.5517,-3.5493,-3.5512,-3.552,-3.5522,-3.5542,-3.5587,-3.5618,-3.566,-3.5772,-3.5773,-3.5825,-3.5843,-3.5858,-3.587,-3.5929,-3.5952,-3.5707,-3.5707,-3.5707,0,0,-3.5423,-3.543,-3.5465,-3.5515,-3.5528,-3.5582,-3.5497,-3.5559,-3.5598,-3.5529,-3.561,-3.5612,-3.5632,-3.5731,-3.5775,-3.5738,-3.5938,-3.5872,-3.5884,-3.5887,-3.5942,-3.5965,-3.5986,-3.5714,-3.5713,-3.5712,0,0,-3.5578,-3.5589,-3.5667,-3.5681,-3.5702,-3.569,-3.5709,-3.5718,-3.5717,-3.5797,-3.5746,-3.5793,-3.5873,-3.5889,-3.5907,-3.6069,-3.6028,-3.6084,-3.6177,-3.6235,-3.6254,-3.6271,-3.6328,-3.6349,-3.6096,-3.6097,-3.6097,0,-3.5662,-3.5742,-3.5711,-3.5776,-3.5799,-3.5739,-3.5817,-3.5833,-3.5866,-3.5883,-3.5841,-3.5939,-3.5949,-3.605,-3.609,-3.6107,-3.6127,-3.6081,-3.6254,-3.6271,-3.6286,-3.6339,-3.6361,-3.6103,-3.6102,-3.6102,-3.6101,0,-3.5844,-3.5901,-3.5961,-3.5994,-3.6024,-3.6095,-3.6074,-3.6109,-3.6083,-3.6076,-3.6158,-3.6167,-3.6209,-3.6232,-3.6208,-3.633,-3.6306,-3.626,-3.6184,-3.6317,-3.6366,-3.6386,-3.6113,-3.611,-3.6108,-3.6107,0,0,-3.6061,-3.6077,-3.6099,-3.6113,-3.6132,-3.6174,-3.6243,-3.6284,-3.6313,-3.6339,-3.6394,-3.6463,-3.642,-3.6441,-3.6418,-3.6469,-3.6596,-3.6416,-3.6416,-3.6448,-3.673,-3.6764,-3.6788,-3.6569,-3.6573,-3.6576,-3.6728,0,-3.6213,-3.633,-3.6305,-3.642,-3.6471,-3.6416,-3.6475,-3.6492,-3.6488,-3.653,-3.6524,-3.6573,-3.6514,-3.6526,-3.6574,-3.657,-3.6651,-3.6559,-3.6619,-3.6622,-3.6614,-3.6814,-3.685,-3.6993,-3.6747,-3.6751,-3.6753,0,-3.6406,-3.6439,-3.6559,-3.6569,-3.6589,-3.6643,-3.6678,-3.672,-3.6739,-3.6732,-3.6756,-3.6723,-3.679,-3.6715,-3.6807,-3.6745,-3.6768,-3.677,-3.6775,-3.6778,-3.6694,-3.6821,-3.7038,-3.7059,-3.6783,-3.6781,-3.6779,0,-3.6551,-3.6625,-3.6706,-3.672,-3.6733,-3.6772,-3.678,-3.6794,-3.6821,-3.6852,-3.6869,-3.6908,-3.6929,-3.6959,-3.6938,-3.6885,-3.7033,-3.6956,-3.7028,-3.7028,-3.706,-3.7058,-3.7282,-3.7078,-3.7078,-3.7077,-3.7077,0,-3.6722,-3.6798,-3.677,-3.682,-3.6903,-3.6873,-3.6955,-3.6956,-3.697,-3.7019,-3.6974,-3.7021,-3.699,-3.7034,-3.7018,-3.7096,-3.7106,-3.7101,-3.7096,-3.7105,-3.7105,-3.7118,-3.7107,-3.7083,-3.7082,-3.708,-3.7079,0,-3.6897,-3.6882,-3.6966,-3.6972,-3.6976,-3.7036,-3.7041,-3.7088,-3.708,-3.7142,-3.7155,-3.7143,-3.7192,-3.7174,-3.7227,-3.7216,-3.7315,-3.7297,-3.7309,-3.7304,-3.7376,-3.7369,-3.7615,-3.7645,-3.7423,-3.7425,-3.7427,0,-3.7006,-3.7063,-3.7076,-3.7105,-3.7116,-3.7164,-3.719,-3.7163,-3.7193,-3.7219,-3.7262,-3.7307,-3.7342,-3.7424,-3.742,-3.746,-3.7442,-3.7526,-3.7448,-3.7455,-3.7442,-3.7438,-3.7443,-3.7541,-3.7544,-3.7546,-3.7547,0,-3.7203,-3.7192,-3.7232,-3.727,-3.7303,-3.7332,-3.7356,-3.7383,-3.7357,-3.7392,-3.7442,-3.747,-3.7524,-3.757,-3.7606,-3.7613,-3.7576,-3.7572,-3.7591,-3.7599,-3.7603,-3.7601,-3.7349,-3.7566,-3.7564,-3.7563,-3.7562,-3.7561,-3.7347,-3.7394,-3.741,-3.7456,-3.7472,-3.7496,-3.7539,-3.7537,-3.7578,-3.762,-3.7602,-3.766,-3.7677,-3.7722,-3.7734,-3.7779,-3.7747,-3.7774,-3.778,-3.7787,-3.7796,-3.7597,-3.7786,-3.7785,-3.7785,-3.7784,-3.7784,0,-3.7539,-3.7547,-3.759,-3.7625,-3.7662,-3.7624,-3.7649,-3.7682,-3.7733,-3.7753,-3.7788,-3.7846,-3.789,-3.789,-3.7931,-3.7967,-3.795,-3.7978,-3.7974,-3.7977,-3.7823,-3.7802,-3.799,-3.799,-3.799,-3.799,-3.799,-3.799,-3.7643,-3.7721,-3.7713,-3.7798,-3.7805,-3.7862,-3.7879,-3.7901,-3.7916,-3.7982,-3.8019,-3.8018,-3.803,-3.8071,-3.811,-3.8109,-3.8125,-3.8159,-3.8152,-3.8008,-3.7987,-3.7968,-3.7948,-3.8164,-3.8164,-3.8301,-3.8302,-3.8303]},{"header":{"parameterUnit":"m.s-1","parameterCategory":1,"la1":30.2991,"la2":30.254,"lo1":-89.0895,"lo2":-89.0444,"dy":0.0017,"dx":0.0017,"nx":28,"ny":28,"refTime":"2024-08-24T09:00:00:Z","depth":0,"parameterNumber":3,"parameterNumberName":"V-component_of_WINDS"},"data":[0,0,0,0,0,0,0,0,0,0,0,0,0,0,0,0,0,0,0,0,0,0,0,0,0,0,0,0,0,0,0,0,0,0,0,0,0,0,0,0,0,0,0,0,0,0,0,0,0,0,0,0,0,0,0,0,0,0,1.5956,1.5956,0,1.5965,1.5965,1.5965,1.5965,1.5965,1.5965,1.5965,1.5973,1.5973,1.5973,0,0,0,0,0,0,0,0,0,0,0,0,0,1.594,1.594,1.5956,1.5956,1.5956,1.5965,1.5965,1.5965,1.5965,1.5965,1.5965,1.5965,1.5972,1.5973,1.5973,0,0,0,0,0,0,0,0,0,0,0,0,0,1.5948,1.594,1.5956,1.5958,1.5958,1.5965,1.5965,1.5965,1.5965,1.5965,1.5965,1.5965,1.5972,1.5973,1.5973,1.5978,0,0,1.5974,1.5975,0,0,0,0,0,0,0,0,1.5947,1.5948,1.5957,1.5958,1.5958,1.5964,1.5962,1.5969,1.5966,1.5963,1.5965,1.5965,1.597,1.597,1.5972,1.5979,1.5979,1.5974,1.5975,1.5975,1.5975,0,0,0,0,0,0,0,1.5947,1.5948,1.596,1.5958,1.5958,1.5958,1.5959,1.5963,1.5967,1.5963,1.5963,1.5964,1.597,1.5972,1.5972,1.5979,1.5974,1.5975,1.5975,1.5975,1.5991,1.5991,0,0,0,0,0,0,1.5946,1.5947,1.5959,1.596,1.5952,1.5958,1.5959,1.5962,1.5967,1.5967,1.5964,1.5964,1.5971,1.5972,1.5973,1.5979,1.5975,1.5975,1.5976,1.5991,1.5991,1.5991,0,0,0,0,0,0,1.5946,1.5947,1.5959,1.5954,1.5955,1.5959,1.5962,1.5962,1.5964,1.5968,1.5968,1.5965,1.5971,1.5972,1.5977,1.598,1.5975,1.5976,1.5991,1.5991,1.5991,1.5993,0,0,0,0,0,0,1.5945,1.5947,1.5949,1.5954,1.5955,1.5964,1.5962,1.5963,1.5965,1.5965,1.5969,1.597,1.5971,1.5977,1.5978,1.598,1.5976,1.599,1.5991,1.5991,1.5992,1.5993,1.5993,0,0,0,0,0,1.5945,1.5949,1.5949,1.595,1.5958,1.5964,1.5965,1.5966,1.5965,1.5967,1.597,1.5969,1.5979,1.5977,1.5978,1.5981,1.599,1.5991,1.5991,1.5992,1.5993,1.5993,0,0,0,0,0,0,1.5943,1.5949,1.595,1.5956,1.5959,1.5964,1.5966,1.5967,1.5971,1.597,1.5972,1.5973,1.5978,1.598,1.5978,1.5986,1.5985,1.5985,1.5985,1.5986,1.5986,1.5985,1.5977,0,0,0,0,0,1.5944,1.5948,1.5953,1.5958,1.596,1.5963,1.5965,1.5966,1.597,1.5971,1.5974,1.5977,1.5981,1.5983,1.5987,1.5993,1.5994,1.5995,1.5996,1.5996,1.5996,1.6,1.6001,1.5992,1.5992,1.5992,0,0,1.5945,1.5949,1.5951,1.5958,1.596,1.5965,1.5964,1.5968,1.5971,1.5972,1.5977,1.5979,1.5983,1.5988,1.5991,1.599,1.5999,1.5997,1.5997,1.5997,1.6,1.6001,1.6002,1.5993,1.5993,1.5993,0,0,1.5949,1.5952,1.5956,1.596,1.5964,1.5967,1.5968,1.5973,1.5974,1.598,1.598,1.5984,1.599,1.5993,1.5995,1.6001,1.6001,1.6002,1.6005,1.6008,1.6009,1.6009,1.6011,1.6012,1.6003,1.6003,1.6003,0,1.5949,1.5956,1.5958,1.5963,1.5966,1.5968,1.5972,1.5975,1.598,1.5982,1.5981,1.599,1.5993,1.5999,1.6001,1.6002,1.6004,1.6002,1.6008,1.6009,1.601,1.6012,1.6012,1.6003,1.6003,1.6003,1.6003,0,1.5956,1.5961,1.5964,1.597,1.5973,1.5978,1.5981,1.5984,1.5985,1.5987,1.5993,1.5996,1.6001,1.6003,1.6004,1.6009,1.6009,1.6008,1.6006,1.601,1.6012,1.6013,1.6003,1.6003,1.6003,1.6003,0,0,1.5958,1.5967,1.5968,1.5971,1.5977,1.598,1.5985,1.599,1.5993,1.5997,1.6001,1.6006,1.6006,1.6009,1.601,1.6013,1.6018,1.6012,1.6012,1.6013,1.6024,1.6025,1.6025,1.6018,1.6018,1.6018,1.6024,0,1.5963,1.5972,1.5975,1.5982,1.5987,1.5989,1.5993,1.5997,1.5999,1.6003,1.6006,1.601,1.6009,1.6011,1.6014,1.6017,1.602,1.6016,1.6021,1.6021,1.602,1.6026,1.6026,1.6032,1.6025,1.6025,1.6025,0,1.5969,1.5974,1.5982,1.5988,1.599,1.5994,1.5999,1.6003,1.6007,1.6009,1.6012,1.6014,1.6018,1.6017,1.6023,1.6021,1.6023,1.6025,1.6025,1.6025,1.6023,1.6027,1.6033,1.6034,1.6026,1.6026,1.6026,0,1.597,1.5979,1.5985,1.5987,1.5994,1.5997,1.6,1.6004,1.6008,1.6012,1.6014,1.6019,1.6021,1.6025,1.6027,1.6026,1.6034,1.6032,1.6035,1.6035,1.6036,1.6036,1.6043,1.6038,1.6038,1.6038,1.6038,0,1.5975,1.598,1.5986,1.5989,1.5995,1.5998,1.6003,1.6006,1.6011,1.6015,1.6016,1.602,1.6023,1.6028,1.603,1.6035,1.6036,1.6037,1.6038,1.6037,1.6037,1.6038,1.6038,1.6039,1.6038,1.6038,1.6038,0,1.5977,1.5981,1.5988,1.5994,1.5996,1.6,1.6005,1.6009,1.6012,1.6017,1.6018,1.6022,1.6027,1.6031,1.6037,1.6038,1.6044,1.6044,1.6042,1.6043,1.6045,1.6045,1.6053,1.6055,1.6049,1.6049,1.6049,0,1.5979,1.5983,1.599,1.5994,1.5997,1.6002,1.6005,1.6009,1.6012,1.6018,1.6021,1.6026,1.6031,1.6039,1.6042,1.6047,1.6047,1.605,1.6048,1.6047,1.6047,1.6047,1.6047,1.605,1.605,1.605,1.605,0,1.5983,1.5986,1.5991,1.5997,1.6001,1.6006,1.601,1.6013,1.6017,1.6021,1.6027,1.603,1.6037,1.6042,1.6047,1.605,1.6051,1.6051,1.6052,1.6051,1.605,1.605,1.6043,1.6051,1.6051,1.6051,1.6051,1.6051,1.5986,1.5989,1.5995,1.6001,1.6005,1.601,1.6014,1.6017,1.6022,1.6028,1.603,1.6036,1.6041,1.6048,1.6051,1.6055,1.6055,1.6056,1.6056,1.6057,1.6057,1.605,1.6056,1.6056,1.6056,1.6056,1.6056,0,1.599,1.5994,1.5999,1.6006,1.6011,1.6012,1.6018,1.6021,1.6026,1.6031,1.6036,1.6042,1.6047,1.6052,1.6057,1.606,1.606,1.6061,1.606,1.6061,1.6057,1.6055,1.606,1.606,1.606,1.606,1.606,1.606,1.5993,1.5999,1.6002,1.6011,1.6014,1.6021,1.6024,1.6028,1.6032,1.6039,1.6044,1.6047,1.6051,1.6057,1.6062,1.6063,1.6064,1.6065,1.6066,1.6062,1.6061,1.6061,1.606,1.6065,1.6065,1.607,1.607,1.607]}]]